SLAYR40 KNGU-KNGU

Flight info

Callsign SLAYR40
Flight time 2h 10m
Altitude 500
Route VFR N
Aircraft H60/L-VGDW/C

Departure

Time 2026-05-03 20:22
Airport Norfolk Naval Station (Chambers Field) (KNGU)

Arrival

Time 2026-05-03 22:33
Airport Norfolk Naval Station (Chambers Field) (KNGU)
Time Latitude Longitude Altitude Speed Heading
2026-05-03 20:15 36.94903 -76.28139 22 ft 0 kts 340°
2026-05-03 20:15 36.94919 -76.28164 10 ft 7 kts 259°
2026-05-03 20:15 36.94913 -76.28189 10 ft 0 kts 253°
2026-05-03 20:16 36.94914 -76.28191 10 ft 0 kts 348°
2026-05-03 20:16 36.94913 -76.28190 10 ft 0 kts 317°
2026-05-03 20:16 36.94914 -76.28190 10 ft 1 kts 317°
2026-05-03 20:17 36.94915 -76.28192 15 ft 0 kts 318°
2026-05-03 20:17 36.94913 -76.28190 14 ft 0 kts 319°
2026-05-03 20:17 36.94929 -76.28210 38 ft 9 kts 319°
2026-05-03 20:17 36.95109 -76.28407 223 ft 67 kts 320°
2026-05-03 20:18 36.95599 -76.28940 301 ft 110 kts 320°
2026-05-03 20:18 36.96188 -76.29543 434 ft 105 kts 320°
2026-05-03 20:18 36.96787 -76.30167 519 ft 109 kts 320°
2026-05-03 20:18 36.97381 -76.30770 485 ft 113 kts 320°
2026-05-03 20:19 36.97968 -76.31380 472 ft 110 kts 320°
2026-05-03 20:19 36.98593 -76.31827 479 ft 101 kts 358°
2026-05-03 20:19 36.99310 -76.31852 485 ft 117 kts 360°
2026-05-03 20:19 37.00119 -76.31798 484 ft 113 kts
2026-05-03 20:20 37.00931 -76.31719 489 ft 113 kts
2026-05-03 20:20 37.01762 -76.31632 467 ft 123 kts
2026-05-03 20:20 37.02608 -76.31519 477 ft 123 kts
2026-05-03 20:20 37.03468 -76.31410 469 ft 126 kts
2026-05-03 20:21 37.04337 -76.31296 471 ft 121 kts
2026-05-03 20:21 37.05203 -76.31172 466 ft 131 kts
2026-05-03 20:21 37.06063 -76.31046 472 ft 122 kts
2026-05-03 20:21 37.06919 -76.30913 472 ft 122 kts
2026-05-03 20:22 37.07806 -76.30893 460 ft 132 kts 352°
2026-05-03 20:22 37.08705 -76.31149 480 ft 132 kts 342°
2026-05-03 20:22 37.09586 -76.31442 479 ft 125 kts 340°
2026-05-03 20:22 37.10361 -76.31733 763 ft 118 kts 340°
2026-05-03 20:23 37.11214 -76.32088 591 ft 129 kts 340°
2026-05-03 20:23 37.12081 -76.32390 598 ft 126 kts 340°
2026-05-03 20:23 37.12937 -76.32709 596 ft 126 kts 340°
2026-05-03 20:23 37.13809 -76.33031 596 ft 124 kts 340°
2026-05-03 20:24 37.14638 -76.33335 592 ft 126 kts 340°
2026-05-03 20:24 37.15519 -76.33646 592 ft 131 kts 340°
2026-05-03 20:24 37.16382 -76.33943 590 ft 125 kts 340°
2026-05-03 20:24 37.17246 -76.34215 592 ft 129 kts 340°
2026-05-03 20:25 37.18120 -76.34498 589 ft 130 kts 341°
2026-05-03 20:25 37.19003 -76.34836 585 ft 131 kts 340°
2026-05-03 20:25 37.19881 -76.35124 591 ft 130 kts 340°
2026-05-03 20:25 37.20771 -76.35430 591 ft 132 kts 340°
2026-05-03 20:26 37.21636 -76.35725 594 ft 129 kts 340°
2026-05-03 20:26 37.22518 -76.36046 592 ft 134 kts 340°
2026-05-03 20:26 37.23394 -76.36344 595 ft 126 kts 340°
2026-05-03 20:26 37.24272 -76.36636 596 ft 129 kts 340°
2026-05-03 20:27 37.25135 -76.36930 600 ft 126 kts 340°
2026-05-03 20:27 37.26005 -76.37231 598 ft 135 kts 340°
2026-05-03 20:27 37.26885 -76.37565 588 ft 129 kts 340°
2026-05-03 20:27 37.27736 -76.37881 592 ft 127 kts 340°
2026-05-03 20:28 37.28580 -76.38214 597 ft 128 kts 340°
2026-05-03 20:28 37.29424 -76.38550 598 ft 127 kts 341°
2026-05-03 20:28 37.30296 -76.38893 602 ft 132 kts 340°
2026-05-03 20:28 37.31161 -76.39247 585 ft 129 kts 341°
2026-05-03 20:29 37.32011 -76.39583 592 ft 130 kts 341°
2026-05-03 20:29 37.32842 -76.39909 584 ft 123 kts 341°
2026-05-03 20:29 37.33688 -76.40240 594 ft 129 kts 341°
2026-05-03 20:29 37.34537 -76.40591 580 ft 130 kts 341°
2026-05-03 20:30 37.35390 -76.40935 589 ft 129 kts 341°
2026-05-03 20:30 37.36225 -76.41268 588 ft 129 kts 341°
2026-05-03 20:30 37.37044 -76.41580 594 ft 125 kts 341°
2026-05-03 20:30 37.37889 -76.41901 593 ft 120 kts 341°
2026-05-03 20:31 37.38732 -76.42227 589 ft 126 kts 341°
2026-05-03 20:31 37.39579 -76.42548 591 ft 122 kts 341°
2026-05-03 20:31 37.40436 -76.42861 595 ft 126 kts 341°
2026-05-03 20:31 37.41276 -76.43181 596 ft 124 kts 341°
2026-05-03 20:32 37.42132 -76.43479 603 ft 129 kts 343°
2026-05-03 20:32 37.43007 -76.43784 635 ft 131 kts 343°
2026-05-03 20:32 37.43841 -76.44072 642 ft 131 kts 343°
2026-05-03 20:32 37.44708 -76.44378 637 ft 121 kts 342°
2026-05-03 20:33 37.45564 -76.44672 643 ft 131 kts 344°
2026-05-03 20:33 37.46420 -76.44971 634 ft 127 kts 344°
2026-05-03 20:33 37.47262 -76.45279 625 ft 132 kts 343°
2026-05-03 20:33 37.48118 -76.45557 628 ft 122 kts 344°
2026-05-03 20:34 37.48948 -76.45840 625 ft 127 kts 344°
2026-05-03 20:34 37.49785 -76.46110 635 ft 124 kts 344°
2026-05-03 20:34 37.50640 -76.46411 635 ft 125 kts 344°
2026-05-03 20:34 37.51466 -76.46700 632 ft 128 kts 344°
2026-05-03 20:35 37.52318 -76.46981 633 ft 121 kts 344°
2026-05-03 20:35 37.53152 -76.47218 633 ft 129 kts 345°
2026-05-03 20:35 37.53996 -76.47495 631 ft 127 kts 344°
2026-05-03 20:35 37.54865 -76.47777 630 ft 134 kts 344°
2026-05-03 20:36 37.55727 -76.48064 632 ft 129 kts 343°
2026-05-03 20:36 37.56585 -76.48333 632 ft 127 kts 344°
2026-05-03 20:36 37.57443 -76.48620 630 ft 128 kts 344°
2026-05-03 20:36 37.58284 -76.48893 629 ft 127 kts 344°
2026-05-03 20:37 37.59129 -76.49186 624 ft 125 kts 344°
2026-05-03 20:37 37.59984 -76.49468 634 ft 124 kts 344°
2026-05-03 20:37 37.60817 -76.49750 637 ft 125 kts 344°
2026-05-03 20:37 37.61657 -76.50034 633 ft 124 kts 344°
2026-05-03 20:38 37.62513 -76.50327 632 ft 121 kts 344°
2026-05-03 20:38 37.63349 -76.50587 634 ft 128 kts 344°
2026-05-03 20:38 37.64204 -76.50862 635 ft 128 kts 344°
2026-05-03 20:38 37.65054 -76.51106 636 ft 133 kts 342°
2026-05-03 20:39 37.65923 -76.51388 631 ft 127 kts 342°
2026-05-03 20:39 37.66804 -76.51696 629 ft 129 kts 342°
2026-05-03 20:39 37.67683 -76.51992 699 ft 134 kts 342°
2026-05-03 20:39 37.68602 -76.52288 820 ft 138 kts 342°
2026-05-03 20:40 37.69537 -76.52575 1001 ft 137 kts 342°
2026-05-03 20:40 37.70451 -76.52895 1299 ft 137 kts 342°
2026-05-03 20:40 37.71386 -76.53202 1439 ft 141 kts 342°
2026-05-03 20:40 37.72335 -76.53508 1500 ft 139 kts 342°
2026-05-03 20:41 37.73286 -76.53826 1494 ft 143 kts 342°
2026-05-03 20:41 37.74240 -76.54161 1505 ft 143 kts 342°
2026-05-03 20:41 37.75196 -76.54474 1507 ft 136 kts 342°
2026-05-03 20:41 37.76143 -76.54801 1512 ft 144 kts 342°
2026-05-03 20:42 37.77102 -76.55111 1499 ft 144 kts 342°
2026-05-03 20:42 37.78045 -76.55418 1504 ft 142 kts 342°
2026-05-03 20:42 37.79018 -76.55736 1506 ft 143 kts 342°
2026-05-03 20:42 37.79987 -76.56028 1507 ft 142 kts 342°
2026-05-03 20:43 37.80962 -76.56315 1506 ft 145 kts 342°
2026-05-03 20:43 37.81939 -76.56609 1504 ft 145 kts 342°
2026-05-03 20:43 37.82898 -76.56896 1505 ft 144 kts 342°
2026-05-03 20:43 37.83884 -76.57197 1505 ft 147 kts 342°
2026-05-03 20:44 37.84854 -76.57476 1516 ft 142 kts 342°
2026-05-03 20:44 37.85835 -76.57775 1504 ft 141 kts 342°
2026-05-03 20:44 37.86800 -76.58060 1506 ft 143 kts 342°
2026-05-03 20:44 37.87785 -76.58370 1513 ft 147 kts 342°
2026-05-03 20:45 37.88754 -76.58647 1506 ft 140 kts 342°
2026-05-03 20:45 37.89710 -76.58923 1507 ft 140 kts 342°
2026-05-03 20:45 37.90683 -76.59199 1504 ft 147 kts 342°
2026-05-03 20:45 37.91656 -76.59500 1506 ft 145 kts 342°
2026-05-03 20:46 37.92616 -76.59802 1509 ft 140 kts 342°
2026-05-03 20:46 37.93571 -76.60119 1503 ft 144 kts 342°
2026-05-03 20:46 37.94514 -76.60426 1511 ft 144 kts 342°
2026-05-03 20:46 37.95477 -76.60761 1505 ft 140 kts 342°
2026-05-03 20:47 37.96414 -76.61055 1510 ft 138 kts 342°
2026-05-03 20:47 37.97370 -76.61358 1512 ft 143 kts 342°
2026-05-03 20:47 37.98316 -76.61690 1509 ft 140 kts 342°
2026-05-03 20:47 37.99262 -76.62009 1509 ft 141 kts 342°
2026-05-03 20:48 38.00216 -76.62310 1515 ft 142 kts 342°
2026-05-03 20:48 38.01160 -76.62621 1511 ft 140 kts 342°
2026-05-03 20:48 38.02101 -76.62932 1512 ft 138 kts 342°
2026-05-03 20:48 38.03055 -76.63268 1511 ft 144 kts 342°
2026-05-03 20:49 38.03993 -76.63590 1504 ft 140 kts 342°
2026-05-03 20:49 38.04938 -76.63882 1506 ft 143 kts 342°
2026-05-03 20:49 38.05902 -76.64214 1508 ft 139 kts 342°
2026-05-03 20:49 38.06834 -76.64529 1509 ft 141 kts 342°
2026-05-03 20:50 38.07791 -76.64843 1522 ft 138 kts 342°
2026-05-03 20:50 38.08727 -76.65143 1515 ft 137 kts 340°
2026-05-03 20:50 38.09616 -76.65500 1513 ft 131 kts 338°
2026-05-03 20:50 38.10466 -76.65911 1513 ft 129 kts 335°
2026-05-03 20:51 38.11303 -76.66328 1505 ft 132 kts 335°
2026-05-03 20:51 38.12211 -76.66798 1507 ft 143 kts 335°
2026-05-03 20:51 38.13070 -76.67309 1503 ft 131 kts 329°
2026-05-03 20:51 38.13911 -76.67893 1509 ft 139 kts 329°
2026-05-03 20:52 38.14731 -76.68475 1511 ft 139 kts 329°
2026-05-03 20:52 38.15610 -76.69104 1512 ft 149 kts 329°
2026-05-03 20:52 38.16450 -76.69673 1504 ft 141 kts 329°
2026-05-03 20:52 38.17302 -76.70255 1506 ft 141 kts 329°
2026-05-03 20:53 38.18144 -76.70846 1505 ft 139 kts 329°
2026-05-03 20:53 38.18989 -76.71429 1507 ft 141 kts 329°
2026-05-03 20:53 38.19839 -76.72026 1512 ft 142 kts 329°
2026-05-03 20:53 38.20678 -76.72636 1512 ft 136 kts 329°
2026-05-03 20:54 38.21517 -76.73231 1507 ft 136 kts 328°
2026-05-03 20:54 38.23187 -76.74399 1509 ft 137 kts 328°
2026-05-03 20:54 38.24034 -76.75006 1509 ft 140 kts 328°
2026-05-03 20:55 38.24868 -76.75620 1504 ft 135 kts 328°
2026-05-03 20:55 38.25697 -76.76233 1511 ft 136 kts 328°
2026-05-03 20:55 38.26530 -76.76830 1511 ft 136 kts 328°
2026-05-03 20:55 38.27361 -76.77459 1509 ft 138 kts 328°
2026-05-03 20:56 38.28175 -76.78100 1503 ft 139 kts 328°
2026-05-03 20:56 38.29001 -76.78729 1504 ft 140 kts 328°
2026-05-03 20:56 38.29822 -76.79358 1496 ft 140 kts 328°
2026-05-03 20:56 38.30620 -76.80009 1513 ft 138 kts 328°
2026-05-03 20:57 38.31426 -76.80655 1506 ft 140 kts 328°
2026-05-03 20:57 38.32256 -76.81289 1506 ft 139 kts 328°
2026-05-03 20:57 38.33084 -76.81926 1506 ft 139 kts 328°
2026-05-03 20:57 38.33913 -76.82553 1499 ft 139 kts 328°
2026-05-03 20:58 38.34472 -76.82967 1500 ft 140 kts 328°
2026-05-03 20:58 38.35305 -76.83566 1511 ft 138 kts 328°
2026-05-03 20:58 38.36150 -76.84184 1509 ft 138 kts 328°
2026-05-03 20:58 38.36981 -76.84820 1504 ft 140 kts 328°
2026-05-03 20:59 38.37812 -76.85450 1512 ft 139 kts 328°
2026-05-03 20:59 38.38662 -76.86043 1508 ft 138 kts 328°
2026-05-03 20:59 38.39488 -76.86643 1501 ft 135 kts 328°
2026-05-03 20:59 38.40323 -76.87269 1504 ft 143 kts 327°
2026-05-03 21:00 38.41185 -76.87860 1501 ft 142 kts 328°
2026-05-03 21:00 38.41761 -76.88271 1504 ft 141 kts 328°
2026-05-03 21:00 38.42868 -76.89108 1508 ft 142 kts 328°
2026-05-03 21:00 38.43717 -76.89724 1501 ft 142 kts 328°
2026-05-03 21:01 38.44563 -76.90318 1499 ft 143 kts 328°
2026-05-03 21:01 38.45412 -76.90922 1503 ft 138 kts 328°
2026-05-03 21:01 38.46255 -76.91555 1498 ft 139 kts 328°
2026-05-03 21:01 38.47094 -76.92185 1500 ft 143 kts 327°
2026-05-03 21:02 38.47926 -76.92809 1502 ft 137 kts 327°
2026-05-03 21:02 38.48755 -76.93440 1503 ft 136 kts 327°
2026-05-03 21:02 38.49586 -76.94082 1508 ft 139 kts 327°
2026-05-03 21:02 38.50430 -76.94712 1512 ft 139 kts 327°
2026-05-03 21:03 38.51262 -76.95348 1504 ft 138 kts 327°
2026-05-03 21:03 38.52099 -76.95933 1504 ft 136 kts 335°
2026-05-03 21:03 38.52942 -76.96431 1507 ft 133 kts 337°
2026-05-03 21:03 38.53816 -76.96862 1503 ft 143 kts 340°
2026-05-03 21:04 38.54756 -76.97256 1502 ft 146 kts 340°
2026-05-03 21:04 38.55690 -76.97619 1501 ft 139 kts 340°
2026-05-03 21:04 38.56600 -76.98013 1484 ft 136 kts 338°
2026-05-03 21:04 38.57485 -76.98365 1572 ft 129 kts 342°
2026-05-03 21:05 38.58352 -76.98601 1641 ft 126 kts 345°
2026-05-03 21:05 38.59211 -76.98780 1730 ft 125 kts 348°
2026-05-03 21:05 38.60060 -76.98944 1797 ft 126 kts 347°
2026-05-03 21:05 38.60923 -76.99091 1783 ft 122 kts 347°
2026-05-03 21:06 38.61764 -76.99218 1835 ft 121 kts 348°
2026-05-03 21:06 38.62619 -76.99319 1807 ft 126 kts 342°
2026-05-03 21:06 38.63487 -76.99375 1796 ft 123 kts 344°
2026-05-03 21:06 38.64348 -76.99406 1946 ft 126 kts 343°
2026-05-03 21:07 38.65240 -76.99476 2018 ft 130 kts 341°
2026-05-03 21:07 38.66146 -76.99596 1973 ft 131 kts 339°
2026-05-03 21:07 38.67026 -76.99822 2029 ft 127 kts 335°
2026-05-03 21:07 38.67865 -77.00133 2082 ft 127 kts 336°
2026-05-03 21:08 38.68704 -77.00475 2111 ft 126 kts 334°
2026-05-03 21:08 38.69460 -77.01028 2078 ft 126 kts 323°
2026-05-03 21:08 38.70222 -77.01611 2025 ft 128 kts 328°
2026-05-03 21:08 38.71004 -77.02078 1933 ft 119 kts 335°
2026-05-03 21:09 38.71784 -77.02376 1906 ft 114 kts 342°
2026-05-03 21:09 38.72559 -77.02578 1742 ft 112 kts 348°
2026-05-03 21:09 38.73307 -77.02722 1651 ft 108 kts 349°
2026-05-03 21:09 38.74070 -77.02850 1447 ft 109 kts 349°
2026-05-03 21:10 38.74788 -77.02944 1371 ft 101 kts 351°
2026-05-03 21:10 38.75471 -77.02988 1309 ft 96 kts 353°
2026-05-03 21:10 38.76121 -77.03038 1301 ft 93 kts 351°
2026-05-03 21:10 38.76802 -77.03093 1150 ft 102 kts 352°
2026-05-03 21:11 38.77525 -77.03127 1039 ft 105 kts 354°
2026-05-03 21:11 38.78244 -77.03141 970 ft 101 kts 352°
2026-05-03 21:11 38.78918 -77.03099 890 ft 95 kts 353°
2026-05-03 21:11 38.79580 -77.03072 762 ft 96 kts 349°
2026-05-03 21:12 38.80226 -77.03116 708 ft 89 kts 349°
2026-05-03 21:12 38.80806 -77.03192 726 ft 80 kts 345°
2026-05-03 21:12 38.81353 -77.03256 654 ft 78 kts 344°
2026-05-03 21:12 38.81851 -77.03338 563 ft 68 kts 338°
2026-05-03 21:13 38.82302 -77.03347 500 ft 61 kts 339°
2026-05-03 21:13 38.82712 -77.03462 527 ft 65 kts 350°
2026-05-03 21:13 38.83184 -77.03512 417 ft 67 kts 343°
2026-05-03 21:13 38.83607 -77.03581 330 ft 53 kts 345°
2026-05-03 21:14 38.83894 -77.03635 216 ft 34 kts 343°
2026-05-03 21:14 38.84107 -77.03660 92 ft 23 kts 342°
2026-05-03 21:14 38.84239 -77.03675 41 ft 15 kts 340°
2026-05-03 21:14 38.84305 -77.03681 27 ft 4 kts 345°
2026-05-03 21:15 38.84319 -77.03681 21 ft 8 kts 346°
2026-05-03 21:15 38.84378 -77.03703 18 ft 7 kts 319°
2026-05-03 21:15 38.84393 -77.03760 20 ft 0 kts 265°
2026-05-03 21:16 38.84393 -77.03765 21 ft 0 kts 265°
2026-05-03 21:16 38.84391 -77.03786 21 ft 8 kts 266°
2026-05-03 21:16 38.84386 -77.03894 23 ft 16 kts 266°
2026-05-03 21:16 38.84379 -77.04050 23 ft 18 kts 266°
2026-05-03 21:17 38.84393 -77.04108 26 ft 6 kts 336°
2026-05-03 21:17 38.84421 -77.04119 23 ft 6 kts 350°
2026-05-03 21:17 38.84457 -77.04126 24 ft 7 kts 352°
2026-05-03 21:17 38.84542 -77.04142 24 ft 12 kts 350°
2026-05-03 21:18 38.84573 -77.04225 22 ft 15 kts 259°
2026-05-03 21:18 38.84570 -77.04323 20 ft 7 kts 284°
2026-05-03 21:18 38.84543 -77.04361 20 ft 4 kts 103°
2026-05-03 21:18 38.84542 -77.04358 20 ft 0 kts 52°
2026-05-03 21:26 38.84543 -77.04357 20 ft 1 kts 54°
2026-05-03 21:26 38.84553 -77.04339 22 ft 4 kts 52°
2026-05-03 21:26 38.84566 -77.04296 21 ft 7 kts 92°
2026-05-03 21:27 38.84570 -77.04242 21 ft 6 kts 79°
2026-05-03 21:27 38.84576 -77.04203 23 ft 3 kts 79°
2026-05-03 21:27 38.84582 -77.04157 23 ft 5 kts 90°
2026-05-03 21:27 38.84561 -77.04139 23 ft 3 kts 172°
2026-05-03 21:28 38.84546 -77.04135 26 ft 3 kts 158°
2026-05-03 21:28 38.84540 -77.04098 23 ft 8 kts 76°
2026-05-03 21:28 38.84549 -77.04060 25 ft 5 kts 71°
2026-05-03 21:28 38.84553 -77.04042 25 ft 2 kts 90°
2026-05-03 21:29 38.84535 -77.04014 23 ft 5 kts 163°
2026-05-03 21:29 38.84488 -77.04003 23 ft 9 kts 169°
2026-05-03 21:29 38.84428 -77.03990 26 ft 8 kts 171°
2026-05-03 21:29 38.84360 -77.03973 23 ft 10 kts 151°
2026-05-03 21:30 38.84328 -77.03925 23 ft 7 kts 116°
2026-05-03 21:30 38.84315 -77.03891 27 ft 3 kts 115°
2026-05-03 21:30 38.84311 -77.03881 27 ft 2 kts 116°
2026-05-03 21:30 38.84303 -77.03858 27 ft 4 kts 114°
2026-05-03 21:31 38.84297 -77.03842 23 ft 0 kts 117°
2026-05-03 21:31 38.84296 -77.03837 23 ft 2 kts 114°
2026-05-03 21:31 38.84288 -77.03812 22 ft 4 kts 111°
2026-05-03 21:31 38.84281 -77.03789 23 ft 0 kts 109°
2026-05-03 21:32 38.84280 -77.03784 22 ft 2 kts 112°
2026-05-03 21:32 38.84264 -77.03734 21 ft 10 kts 96°
2026-05-03 21:32 38.84311 -77.03692 18 ft 0 kts 356°
2026-05-03 21:32 38.84320 -77.03696 35 ft 10 kts 358°
2026-05-03 21:33 38.84577 -77.03720 104 ft 69 kts 357°
2026-05-03 21:33 38.85240 -77.03821 295 ft 112 kts 347°
2026-05-03 21:33 38.86053 -77.03920 580 ft 121 kts 347°
2026-05-03 21:33 38.86817 -77.04233 827 ft 111 kts 300°
2026-05-03 21:34 38.87095 -77.05150 892 ft 123 kts 270°
2026-05-03 21:34 38.86978 -77.06255 755 ft 124 kts 244°
2026-05-03 21:34 38.86439 -77.07044 1046 ft 122 kts 208°
2026-05-03 21:34 38.85599 -77.07417 1270 ft 133 kts 195°
2026-05-03 21:35 38.84673 -77.07608 1311 ft 135 kts 193°
2026-05-03 21:35 38.83788 -77.07858 1313 ft 122 kts 206°
2026-05-03 21:35 38.83112 -77.08412 1311 ft 116 kts 226°
2026-05-03 21:35 38.82511 -77.09307 1299 ft 148 kts 236°
2026-05-03 21:36 38.81970 -77.10285 1312 ft 121 kts 241°
2026-05-03 21:36 38.81508 -77.11164 1306 ft 119 kts 241°
2026-05-03 21:36 38.81080 -77.12053 1312 ft 120 kts 244°
2026-05-03 21:36 38.80680 -77.12966 1305 ft 119 kts 246°
2026-05-03 21:37 38.80317 -77.13865 1309 ft 116 kts 248°
2026-05-03 21:37 38.79955 -77.14800 1292 ft 117 kts 247°
2026-05-03 21:37 38.79610 -77.15741 1285 ft 113 kts 247°
2026-05-03 21:37 38.79082 -77.16482 1284 ft 115 kts 226°
2026-05-03 21:38 38.78380 -77.17118 1287 ft 123 kts 220°
2026-05-03 21:38 38.77589 -77.17790 1270 ft 155 kts 213°
2026-05-03 21:38 38.76506 -77.18312 1277 ft 176 kts 200°
2026-05-03 21:38 38.75363 -77.18585 1295 ft 148 kts 195°
2026-05-03 21:39 38.74426 -77.18792 1299 ft 129 kts 196°
2026-05-03 21:39 38.73536 -77.19024 1293 ft 133 kts 198°
2026-05-03 21:39 38.72632 -77.19302 1292 ft 131 kts 200°
2026-05-03 21:39 38.71707 -77.19559 1275 ft 147 kts 192°
2026-05-03 21:40 38.70642 -77.19405 1275 ft 160 kts 167°
2026-05-03 21:40 38.69630 -77.18749 1288 ft 165 kts 147°
2026-05-03 21:40 38.68748 -77.17981 1303 ft 145 kts 149°
2026-05-03 21:40 38.67883 -77.17260 1294 ft 146 kts 151°
2026-05-03 21:41 38.67326 -77.16811 1293 ft 141 kts 151°
2026-05-03 21:41 38.66489 -77.16147 1333 ft 141 kts 151°
2026-05-03 21:41 38.65636 -77.15483 1334 ft 145 kts 151°
2026-05-03 21:41 38.64759 -77.14806 1331 ft 145 kts 151°
2026-05-03 21:42 38.63904 -77.14142 1325 ft 141 kts 151°
2026-05-03 21:42 38.63066 -77.13487 1331 ft 142 kts 151°
2026-05-03 21:42 38.62231 -77.12847 1330 ft 139 kts 151°
2026-05-03 21:42 38.61382 -77.12217 1331 ft 142 kts 151°
2026-05-03 21:43 38.60561 -77.11483 1335 ft 144 kts 146°
2026-05-03 21:43 38.59766 -77.10759 1327 ft 136 kts 146°
2026-05-03 21:43 38.58971 -77.10059 1330 ft 141 kts 146°
2026-05-03 21:43 38.58150 -77.09330 1332 ft 144 kts 146°
2026-05-03 21:44 38.57364 -77.08589 1331 ft 141 kts 146°
2026-05-03 21:44 38.56574 -77.07835 1332 ft 142 kts 146°
2026-05-03 21:44 38.55791 -77.07098 1333 ft 140 kts 146°
2026-05-03 21:44 38.54992 -77.06346 1333 ft 142 kts 146°
2026-05-03 21:45 38.54208 -77.05586 1332 ft 140 kts 146°
2026-05-03 21:45 38.53430 -77.04846 1331 ft 141 kts 146°
2026-05-03 21:45 38.52633 -77.04089 1333 ft 142 kts 146°
2026-05-03 21:45 38.51853 -77.03354 1335 ft 141 kts 146°
2026-05-03 21:46 38.51055 -77.02585 1335 ft 142 kts 146°
2026-05-03 21:46 38.50280 -77.01830 1335 ft 141 kts 146°
2026-05-03 21:46 38.49489 -77.01059 1335 ft 141 kts 146°
2026-05-03 21:46 38.48730 -77.00314 1337 ft 139 kts 146°
2026-05-03 21:47 38.47941 -76.99551 1332 ft 142 kts 146°
2026-05-03 21:47 38.47178 -76.98782 1332 ft 140 kts 146°
2026-05-03 21:47 38.46409 -76.98014 1338 ft 134 kts 148°
2026-05-03 21:47 38.45615 -76.97309 1344 ft 138 kts 149°
2026-05-03 21:48 38.44828 -76.96565 1340 ft 142 kts 143°
2026-05-03 21:48 38.44055 -76.95777 1333 ft 143 kts 143°
2026-05-03 21:48 38.43298 -76.94948 1335 ft 141 kts 143°
2026-05-03 21:48 38.42556 -76.94120 1339 ft 142 kts 143°
2026-05-03 21:49 38.41819 -76.93298 1340 ft 138 kts 143°
2026-05-03 21:49 38.41065 -76.92523 1340 ft 142 kts 143°
2026-05-03 21:49 38.40305 -76.91731 1339 ft 142 kts 143°
2026-05-03 21:49 38.39540 -76.90937 1340 ft 141 kts 143°
2026-05-03 21:50 38.38801 -76.90118 1342 ft 140 kts 143°
2026-05-03 21:50 38.38020 -76.89353 1341 ft 144 kts 146°
2026-05-03 21:50 38.37171 -76.88699 1350 ft 134 kts 151°
2026-05-03 21:50 38.36370 -76.88055 1354 ft 137 kts 151°
2026-05-03 21:51 38.35530 -76.87420 1347 ft 142 kts 151°
2026-05-03 21:51 38.34706 -76.86764 1348 ft 140 kts 151°
2026-05-03 21:51 38.33880 -76.86081 1345 ft 144 kts 151°
2026-05-03 21:51 38.33047 -76.85376 1344 ft 144 kts 151°
2026-05-03 21:52 38.32227 -76.84686 1342 ft 141 kts 151°
2026-05-03 21:52 38.31366 -76.84010 1337 ft 146 kts 152°
2026-05-03 21:52 38.30508 -76.83362 1336 ft 144 kts 152°
2026-05-03 21:52 38.29662 -76.82690 1340 ft 144 kts 152°
2026-05-03 21:53 38.28827 -76.82008 1341 ft 142 kts 152°
2026-05-03 21:53 38.27984 -76.81346 1342 ft 144 kts 152°
2026-05-03 21:53 38.27144 -76.80689 1339 ft 140 kts 152°
2026-05-03 21:53 38.26316 -76.80025 1340 ft 141 kts 152°
2026-05-03 21:54 38.25484 -76.79363 1335 ft 142 kts 152°
2026-05-03 21:54 38.24638 -76.78706 1339 ft 141 kts 152°
2026-05-03 21:54 38.23803 -76.78052 1341 ft 141 kts 152°
2026-05-03 21:54 38.22977 -76.77386 1342 ft 140 kts 152°
2026-05-03 21:55 38.22144 -76.76706 1341 ft 143 kts 152°
2026-05-03 21:55 38.21299 -76.76020 1336 ft 143 kts 152°
2026-05-03 21:55 38.20450 -76.75335 1333 ft 145 kts 152°
2026-05-03 21:55 38.19608 -76.74664 1333 ft 143 kts 152°
2026-05-03 21:56 38.18767 -76.73974 1334 ft 143 kts 152°
2026-05-03 21:56 38.17928 -76.73292 1334 ft 144 kts 152°
2026-05-03 21:56 38.17052 -76.72611 1320 ft 152 kts 152°
2026-05-03 21:56 38.16165 -76.71965 1343 ft 138 kts 154°
2026-05-03 21:57 38.15326 -76.71344 1336 ft 140 kts 154°
2026-05-03 21:57 38.14464 -76.70716 1334 ft 143 kts 154°
2026-05-03 21:57 38.13599 -76.70100 1329 ft 143 kts 154°
2026-05-03 21:57 38.12735 -76.69472 1326 ft 147 kts 154°
2026-05-03 21:58 38.11875 -76.68849 1325 ft 143 kts 154°
2026-05-03 21:58 38.11031 -76.68241 1326 ft 140 kts 154°
2026-05-03 21:58 38.10184 -76.67632 1329 ft 141 kts 154°
2026-05-03 21:58 38.09325 -76.67023 1330 ft 140 kts 154°
2026-05-03 21:59 38.08496 -76.66436 1326 ft 139 kts 154°
2026-05-03 21:59 38.07643 -76.65799 1325 ft 142 kts 154°
2026-05-03 21:59 38.06795 -76.65174 1331 ft 139 kts 154°
2026-05-03 21:59 38.05939 -76.64535 1325 ft 143 kts 154°
2026-05-03 22:00 38.05088 -76.63896 1329 ft 142 kts 154°
2026-05-03 22:00 38.04239 -76.63275 1327 ft 141 kts 154°
2026-05-03 22:00 38.03406 -76.62675 1330 ft 137 kts 152°
2026-05-03 22:00 38.02585 -76.62081 1332 ft 133 kts 158°
2026-05-03 22:01 38.01715 -76.61520 1326 ft 142 kts 158°
2026-05-03 22:01 38.00835 -76.60954 1328 ft 139 kts 157°
2026-05-03 22:01 37.99967 -76.60419 1324 ft 139 kts 158°
2026-05-03 22:01 37.99109 -76.59886 1325 ft 141 kts 157°
2026-05-03 22:02 37.98242 -76.59344 1331 ft 138 kts 157°
2026-05-03 22:02 37.97376 -76.58813 1330 ft 139 kts 158°
2026-05-03 22:02 37.96504 -76.58267 1352 ft 141 kts 158°
2026-05-03 22:02 37.95612 -76.57704 1352 ft 144 kts 157°
2026-05-03 22:03 37.94722 -76.57154 1347 ft 139 kts 158°
2026-05-03 22:03 37.93854 -76.56633 1350 ft 137 kts 158°
2026-05-03 22:03 37.92971 -76.56087 1353 ft 139 kts 157°
2026-05-03 22:03 37.92099 -76.55569 1352 ft 142 kts 158°
2026-05-03 22:04 37.91209 -76.55018 1347 ft 141 kts 158°
2026-05-03 22:04 37.90324 -76.54547 1352 ft 138 kts 164°
2026-05-03 22:04 37.89402 -76.54114 1349 ft 145 kts 164°
2026-05-03 22:04 37.88469 -76.53673 1347 ft 137 kts 164°
2026-05-03 22:05 37.87564 -76.53266 1355 ft 141 kts 164°
2026-05-03 22:05 37.86655 -76.52831 1351 ft 136 kts 164°
2026-05-03 22:05 37.85762 -76.52421 1354 ft 137 kts 164°
2026-05-03 22:05 37.84878 -76.52004 1352 ft 134 kts 164°
2026-05-03 22:06 37.83976 -76.51574 1349 ft 137 kts 164°
2026-05-03 22:06 37.83080 -76.51135 1352 ft 135 kts 164°
2026-05-03 22:06 37.82202 -76.50718 1349 ft 136 kts 164°
2026-05-03 22:06 37.81296 -76.50281 1353 ft 138 kts 164°
2026-05-03 22:07 37.80406 -76.49867 1350 ft 135 kts 164°
2026-05-03 22:07 37.79513 -76.49472 1343 ft 139 kts 164°
2026-05-03 22:07 37.78625 -76.49059 1346 ft 135 kts 164°
2026-05-03 22:07 37.77720 -76.48653 1345 ft 139 kts 164°
2026-05-03 22:08 37.76818 -76.48225 1348 ft 136 kts 164°
2026-05-03 22:08 37.75933 -76.47817 1344 ft 136 kts 164°
2026-05-03 22:08 37.75034 -76.47400 1348 ft 139 kts 164°
2026-05-03 22:08 37.74130 -76.46980 1348 ft 138 kts 164°
2026-05-03 22:09 37.73228 -76.46571 1345 ft 135 kts 164°
2026-05-03 22:09 37.72310 -76.46159 1347 ft 142 kts 164°
2026-05-03 22:09 37.71398 -76.45751 1348 ft 137 kts 164°
2026-05-03 22:10 37.69574 -76.44948 1347 ft 141 kts 164°
2026-05-03 22:10 37.68686 -76.44419 1339 ft 146 kts 149°
2026-05-03 22:10 37.67854 -76.43751 1345 ft 142 kts 150°
2026-05-03 22:10 37.67035 -76.43076 1353 ft 142 kts 150°
2026-05-03 22:11 37.66211 -76.42404 1350 ft 139 kts 150°
2026-05-03 22:11 37.65393 -76.41750 1350 ft 140 kts 150°
2026-05-03 22:11 37.64563 -76.41083 1351 ft 141 kts 150°
2026-05-03 22:11 37.63747 -76.40422 1351 ft 139 kts 150°
2026-05-03 22:12 37.62939 -76.39768 1349 ft 139 kts 150°
2026-05-03 22:12 37.62115 -76.39109 1351 ft 139 kts 150°
2026-05-03 22:12 37.61299 -76.38452 1349 ft 140 kts 150°
2026-05-03 22:12 37.60491 -76.37783 1349 ft 140 kts 150°
2026-05-03 22:13 37.59671 -76.37125 1348 ft 140 kts 150°
2026-05-03 22:13 37.58855 -76.36464 1348 ft 140 kts 150°
2026-05-03 22:13 37.58038 -76.35779 1354 ft 141 kts 150°
2026-05-03 22:13 37.57229 -76.35114 1353 ft 138 kts 150°
2026-05-03 22:14 37.56428 -76.34445 1355 ft 139 kts 150°
2026-05-03 22:14 37.55615 -76.33768 1355 ft 140 kts 150°
2026-05-03 22:14 37.54798 -76.33077 1356 ft 142 kts 150°
2026-05-03 22:14 37.53991 -76.32390 1355 ft 141 kts 150°
2026-05-03 22:15 37.53173 -76.31704 1353 ft 141 kts 150°
2026-05-03 22:15 37.52354 -76.31026 1354 ft 140 kts 150°
2026-05-03 22:15 37.51537 -76.30358 1354 ft 139 kts 150°
2026-05-03 22:15 37.50728 -76.29693 1354 ft 139 kts 150°
2026-05-03 22:16 37.49912 -76.29017 1355 ft 140 kts 150°
2026-05-03 22:16 37.49098 -76.28341 1353 ft 139 kts 150°
2026-05-03 22:16 37.48299 -76.27679 1354 ft 140 kts 150°
2026-05-03 22:16 37.47485 -76.27003 1357 ft 140 kts 150°
2026-05-03 22:17 37.46671 -76.26330 1352 ft 138 kts 150°
2026-05-03 22:17 37.45871 -76.25659 1353 ft 140 kts 150°
2026-05-03 22:17 37.45068 -76.24988 1351 ft 138 kts 150°
2026-05-03 22:17 37.44264 -76.24323 1354 ft 138 kts 150°
2026-05-03 22:18 37.43463 -76.23657 1357 ft 138 kts 150°
2026-05-03 22:18 37.42657 -76.22982 1358 ft 139 kts 150°
2026-05-03 22:18 37.41851 -76.22305 1357 ft 137 kts 150°
2026-05-03 22:18 37.41042 -76.21640 1355 ft 143 kts 150°
2026-05-03 22:19 37.40215 -76.20966 1359 ft 139 kts 150°
2026-05-03 22:19 37.39409 -76.20300 1366 ft 139 kts 150°
2026-05-03 22:19 37.38597 -76.19634 1362 ft 139 kts 150°
2026-05-03 22:19 37.37787 -76.18993 1361 ft 137 kts 150°
2026-05-03 22:20 37.36980 -76.18336 1361 ft 140 kts 150°
2026-05-03 22:20 37.36174 -76.17674 1362 ft 139 kts 150°
2026-05-03 22:20 37.35348 -76.17044 1356 ft 141 kts 159°
2026-05-03 22:20 37.34379 -76.16808 1356 ft 144 kts 186°
2026-05-03 22:21 37.33435 -76.16876 1359 ft 132 kts 191°
2026-05-03 22:21 37.32509 -76.16972 1361 ft 133 kts 193°
2026-05-03 22:21 37.31581 -76.17099 1360 ft 133 kts 193°
2026-05-03 22:21 37.30657 -76.17238 1360 ft 133 kts 194°
2026-05-03 22:22 37.29734 -76.17391 1356 ft 133 kts 195°
2026-05-03 22:22 37.28838 -76.17550 1359 ft 131 kts 195°
2026-05-03 22:22 37.27933 -76.17735 1359 ft 132 kts 196°
2026-05-03 22:22 37.27028 -76.17930 1364 ft 132 kts 196°
2026-05-03 22:23 37.26118 -76.18123 1349 ft 136 kts 196°
2026-05-03 22:23 37.25210 -76.18335 1346 ft 131 kts 196°
2026-05-03 22:23 37.24297 -76.18534 1345 ft 133 kts 196°
2026-05-03 22:23 37.23390 -76.18754 1347 ft 133 kts 196°
2026-05-03 22:24 37.22485 -76.18956 1346 ft 132 kts 196°
2026-05-03 22:24 37.21578 -76.19159 1345 ft 134 kts 196°
2026-05-03 22:24 37.20967 -76.19295 1345 ft 132 kts 196°
2026-05-03 22:24 37.20067 -76.19499 1349 ft 133 kts 196°
2026-05-03 22:25 37.18863 -76.19789 1339 ft 133 kts 196°
2026-05-03 22:25 37.17966 -76.19994 1341 ft 134 kts 196°
2026-05-03 22:25 37.17358 -76.20221 1338 ft 131 kts 201°
2026-05-03 22:25 37.16500 -76.20530 1341 ft 131 kts 201°
2026-05-03 22:26 37.15626 -76.20843 1342 ft 129 kts 201°
2026-05-03 22:26 37.14756 -76.21147 1341 ft 131 kts 202°
2026-05-03 22:26 37.13911 -76.21460 1335 ft 122 kts 205°
2026-05-03 22:26 37.13118 -76.21808 1275 ft 119 kts 206°
2026-05-03 22:27 37.12366 -76.22191 1206 ft 115 kts 210°
2026-05-03 22:27 37.11604 -76.22594 1063 ft 123 kts 209°
2026-05-03 22:27 37.10796 -76.23011 944 ft 124 kts 207°
2026-05-03 22:27 37.10020 -76.23407 999 ft 120 kts 208°
2026-05-03 22:28 37.09251 -76.23850 823 ft 120 kts 212°
2026-05-03 22:28 37.08570 -76.24336 1043 ft 105 kts 216°
2026-05-03 22:28 37.07918 -76.24853 1025 ft 117 kts 208°
2026-05-03 22:28 37.07203 -76.25373 925 ft 117 kts 206°
2026-05-03 22:29 37.06541 -76.25957 879 ft 116 kts 213°
2026-05-03 22:29 37.05893 -76.26566 870 ft 116 kts 208°
2026-05-03 22:29 37.05188 -76.27022 991 ft 109 kts 199°
2026-05-03 22:29 37.04547 -76.27414 1239 ft 97 kts 198°
2026-05-03 22:30 37.03956 -76.27811 1245 ft 97 kts 197°
2026-05-03 22:30 37.03331 -76.28211 1136 ft 104 kts 194°
2026-05-03 22:30 37.02648 -76.28577 956 ft 110 kts 188°
2026-05-03 22:30 37.01920 -76.28865 840 ft 111 kts 185°
2026-05-03 22:31 37.01181 -76.29159 803 ft 116 kts 189°
2026-05-03 22:31 37.00433 -76.29580 687 ft 115 kts 195°
2026-05-03 22:31 36.99762 -76.30018 725 ft 102 kts 195°
2026-05-03 22:31 36.99192 -76.30379 778 ft 85 kts 182°
2026-05-03 22:32 36.98666 -76.30645 807 ft 78 kts 197°
2026-05-03 22:32 36.98159 -76.30756 753 ft 71 kts 186°
2026-05-03 22:32 36.97641 -76.30755 652 ft 80 kts 173°
2026-05-03 22:32 36.97065 -76.30644 506 ft 87 kts 166°
2026-05-03 22:33 36.96497 -76.30357 374 ft 87 kts 144°
2026-05-03 22:33 36.96084 -76.29933 424 ft 63 kts 137°
2026-05-03 22:33 36.95818 -76.29630 311 ft 39 kts 131°
2026-05-03 22:33 36.95666 -76.29469 119 ft 28 kts 127°
2026-05-03 22:34 36.95441 -76.29305 137 ft 47 kts 128°
2026-05-03 22:34 36.95193 -76.29075 158 ft 36 kts 128°
2026-05-03 22:34 36.95063 -76.28979 104 ft 20 kts 125°
2026-05-03 22:34 36.94925 -76.28841 109 ft 23 kts 124°
2026-05-03 22:35 36.94826 -76.28717 60 ft 12 kts 123°
2026-05-03 22:35 36.94767 -76.28714 58 ft 7 kts 117°
2026-05-03 22:35 36.94733 -76.28697 74 ft 8 kts 105°
2026-05-03 22:35 36.94695 -76.28675 71 ft 3 kts 98°
2026-05-03 22:36 36.94690 -76.28669 26 ft 1 kts 93°
2026-05-03 22:36 36.94688 -76.28665 20 ft 0 kts 94°
2026-05-03 22:36 36.94689 -76.28662 14 ft 1 kts 95°
2026-05-03 22:36 36.94689 -76.28660 12 ft 0 kts 95°
2026-05-03 22:39 36.94690 -76.28667 12 ft 1 kts 94°
2026-05-03 22:39 36.94690 -76.28675 14 ft 0 kts 94°